Showing default

SENTINEL 3B, 43437

Orbit data source: Space-Track

SENTINEL 3B, 43437 is an ESA payload satellite in SSO that was launched on Wed, 25 Apr 2018 UTC via an ROKOT launch vehicle from the Plesetsk Missile And Space Complex (PKMTR). Payload-class satellites include a variety of spacecraft equipped with specific instruments for various scientific and technological missions. These include communications satellites like Starlink; space stations such as the ISS; scientific satellites like the Hubble; Earth observation satellites from companies like Planet Labs, Umbra, and HawkEye 360; GPS; miniature CubeSats for education and research; and military/defense satellites.

Loading next visibility...
Identifier
43437, 2018-039A
Orbit
SSO
Country
Flag of ESAESA
Related business
Manufacturer
Thales Alenia
Mission
Operational Civil Imaging
Bus & Motor
SENTINEL-3A, Unknown motor
Mass
1,250 kg wet, 1,150 kg dry
Launch date (UTC)
2018-04-25 (8 years ago)
Launch vehicle
ROKOT
Launch site
Plesetsk Missile And Space Complex (PKMTR)
Object type
Payload
Rocket body
Debris
Shape & HBR
Box + 1 Pan, 2.0 m
Radar Cross Section
12.454 m², Large (>1 m²)

Expand to show TLE details & history
Last TLE update: 2 days ago

TLE from 2 days ago
0 SENTINEL 3B
1 43437U 18039A   26171.41568603  .00000074  00000-0  48499-4 0  9991
2 43437  98.6248 238.9017 0000727  94.6800 265.4463 14.26735540424583
Epoch: 2026-06-20T09:58Z
TLE epoch observation values (Epoch: 2026-06-20T09:58:35.272Z)
Latitude
-0.0001°
Longitude
-179.37588°
Altitude
805.631 km
Speed
7.451 km/s
True Right ascension
15h 55m 36s
True Declination
0° 00' 00"
Sunlit
Object was in full shadow at epoch
Visualization orbit readout
Latitude
Unknown
Longitude
Unknown
Altitude
Unknown
Speed
Unknown
Apparent Right ascension
Unknown
Apparent Declination
Unknown
Sunlit
N/A
Visualization observer readout
Local Sidereal Time
21:51:22
Azimuth
Unknown
Elevation
Unknown
Doppler factor
Unknown
Orbital elements
Apogee altitude
800.331 km
Perigee altitude
799.287 km
Semi-major axis
7,177.946 km
Eccentricity
0.00007
Inclination
98.6248°
RAAN
238.9017°
Arg. of periapsis
94.68°
True anomaly
265.438°
Mean anomaly
265.4463°
Eccentric anomaly
265.44215°
Mean motion
3.56897 °/min
Orbital period
100.87 mins
BSTAR
0.000048499
Loading maneuver chart data...
Computing Atmospheric mass density...
Loading historical data...
Loading historical data...
Loading historical data...
Loading historical data...
Loading historical data...
Loading historical data...
Loading historical data...
Other satellites on launch #39 in the year 2018 (2018-04-25 UTC)

Documentation

Showing up to 5 results
|